• In Hungary
  • List of Countries
  • For 7 days
  • Water Temperature
  • Satellite Maps
  • Weather Map
  • News
  • Weather Widgets
  • user-avatar
    Login

    Hourly Weather Kofu

    Today, 25 September, Tuesday

    Time Temperature Precipitation Wind Pressure Humidity
    00:00 +18°C° 0.1 mm 1 mps 673 mmHg 90%
    01:00 +18°C° 0 mm 1 mps 673 mmHg 90%
    02:00 +16°C° 0 mm 0 mps 673 mmHg 90%
    03:00 +16°C° 0 mm 0 mps 673 mmHg 90%
    04:00 +16°C° 0 mm 0 mps 673 mmHg 90%
    05:00 +16°C° 0 mm 0 mps 673 mmHg 89%
    06:00 +16°C° 0 mm 0 mps 673 mmHg 88%
    07:00 +18°C° 0.2 mm 1 mps 673 mmHg 86%
    08:00 +19°C° 0.2 mm 1 mps 674 mmHg 83%
    09:00 +20°C° 0.2 mm 1 mps 674 mmHg 81%
    10:00 +20°C° 1.3 mm 1 mps 674 mmHg 82%
    11:00 +19°C° 1.3 mm 1 mps 674 mmHg 84%
    12:00 +19°C° 1.3 mm 1 mps 674 mmHg 85%
    13:00 +19°C° 2.3 mm 1 mps 674 mmHg 86%
    14:00 +19°C° 2.3 mm 1 mps 673 mmHg 87%
    15:00 +18°C° 2.3 mm 1 mps 673 mmHg 88%
    16:00 +18°C° 0.8 mm 1 mps 673 mmHg 89%
    17:00 +18°C° 0.8 mm 1 mps 673 mmHg 90%
    18:00 +16°C° 0.8 mm 1 mps 673 mmHg 90%
    19:00 +16°C° 0.1 mm 1 mps 673 mmHg 91%
    20:00 +16°C° 0.1 mm 1 mps 673 mmHg 91%
    21:00 +16°C° 0.1 mm 1 mps 673 mmHg 92%
    22:00 +15°C° 0 mm 1 mps 673 mmHg 92%
    23:00 +15°C° 0 mm 1 mps 673 mmHg 92%

    Tomorrow, 26 September, Wednesday

    Time Temperature Precipitation Wind Pressure Humidity
    00:00 +15°C° 0 mm 1 mps 673 mmHg 91%
    01:00 +15°C° 0 mm 1 mps 673 mmHg 91%
    02:00 +15°C° 0 mm 1 mps 673 mmHg 91%
    03:00 +15°C° 0 mm 1 mps 673 mmHg 91%
    04:00 +15°C° 0 mm 1 mps 673 mmHg 90%
    05:00 +15°C° 0 mm 1 mps 673 mmHg 90%
    06:00 +14°C° 0 mm 2 mps 673 mmHg 90%
    07:00 +16°C° 0 mm 2 mps 674 mmHg 85%
    08:00 +17°C° 0 mm 2 mps 674 mmHg 80%
    09:00 +18°C° 0 mm 2 mps 675 mmHg 75%
    10:00 +19°C° 0 mm 2 mps 675 mmHg 71%
    11:00 +20°C° 0 mm 2 mps 675 mmHg 68%
    12:00 +21°C° 0 mm 2 mps 675 mmHg 64%
    13:00 +20°C° 0.1 mm 2 mps 675 mmHg 65%
    14:00 +20°C° 0.1 mm 2 mps 674 mmHg 67%
    15:00 +20°C° 0.1 mm 2 mps 674 mmHg 68%
    16:00 +18°C° 0.2 mm 2 mps 673 mmHg 73%
    17:00 +17°C° 0.2 mm 2 mps 673 mmHg 79%
    18:00 +16°C° 0.2 mm 2 mps 673 mmHg 84%
    19:00 +16°C° 1.2 mm 2 mps 673 mmHg 86%
    20:00 +15°C° 1.2 mm 2 mps 673 mmHg 87%
    21:00 +15°C° 1.2 mm 2 mps 673 mmHg 89%
    22:00 +15°C° 1.4 mm 2 mps 673 mmHg 89%
    23:00 +15°C° 1.4 mm 2 mps 672 mmHg 90%

    Day after tomorrow, 27 September, Thursday

    Time Temperature Precipitation Wind Pressure Humidity
    00:00 +13°C° 1.4 mm 3 mps 672 mmHg 90%
    01:00 +13°C° 1.5 mm 3 mps 672 mmHg 90%
    02:00 +13°C° 1.5 mm 3 mps 671 mmHg 90%
    03:00 +14°C° 1.5 mm 2 mps 671 mmHg 90%
    04:00 +14°C° 0.8 mm 2 mps 671 mmHg 90%
    05:00 +13°C° 0.8 mm 2 mps 671 mmHg 90%
    06:00 +13°C° 0.8 mm 2 mps 671 mmHg 90%
    07:00 +14°C° 0.5 mm 2 mps 671 mmHg 88%
    08:00 +15°C° 0.5 mm 2 mps 671 mmHg 86%
    09:00 +16°C° 0.5 mm 2 mps 671 mmHg 84%
    10:00 +16°C° 1.1 mm 2 mps 671 mmHg 84%
    11:00 +16°C° 1.1 mm 2 mps 671 mmHg 84%
    12:00 +16°C° 1.1 mm 1 mps 671 mmHg 85%
    13:00 +16°C° 0.8 mm 1 mps 671 mmHg 85%
    14:00 +16°C° 0.8 mm 1 mps 670 mmHg 85%
    15:00 +16°C° 0.8 mm 1 mps 670 mmHg 85%
    16:00 +16°C° 0.2 mm 1 mps 670 mmHg 86%
    17:00 +15°C° 0.2 mm 1 mps 670 mmHg 87%
    18:00 +15°C° 0.2 mm 1 mps 670 mmHg 88%
    19:00 +15°C° 0.3 mm 1 mps 671 mmHg 89%
    20:00 +15°C° 0.3 mm 1 mps 671 mmHg 89%
    21:00 +14°C° 0.3 mm 1 mps 671 mmHg 90%
    22:00 +14°C° 0.1 mm 1 mps 671 mmHg 90%
    23:00 +14°C° 0.1 mm 1 mps 671 mmHg 90%

    28 September, Friday

    Time Temperature Precipitation Wind Pressure Humidity
    00:00 +13°C° 0.1 mm 1 mps 671 mmHg 91%
    01:00 +13°C° 0 mm 1 mps 671 mmHg 91%
    02:00 +13°C° 0 mm 1 mps 671 mmHg 91%
    03:00 +13°C° 0 mm 1 mps 671 mmHg 91%
    04:00 +13°C° 0 mm 1 mps 671 mmHg 90%
    05:00 +12°C° 0 mm 1 mps 671 mmHg 90%
    06:00 +12°C° 0 mm 1 mps 672 mmHg 90%
    07:00 +14°C° 0 mm 1 mps 672 mmHg 83%
    08:00 +16°C° 0 mm 1 mps 673 mmHg 77%
    09:00 +20°C° 0 mm 1 mps 674 mmHg 70%
    10:00 +21°C° 0 mm 1 mps 674 mmHg 64%
    11:00 +22°C° 0 mm 1 mps 674 mmHg 57%
    12:00 +23°C° 0 mm 2 mps 674 mmHg 51%
    13:00 +23°C° 0 mm 2 mps 674 mmHg 53%
    14:00 +21°C° 0 mm 2 mps 674 mmHg 56%
    15:00 +21°C° 0 mm 2 mps 674 mmHg 58%
    16:00 +19°C° 0 mm 2 mps 674 mmHg 67%
    17:00 +18°C° 0 mm 2 mps 674 mmHg 75%
    18:00 +16°C° 0 mm 1 mps 674 mmHg 83%
    19:00 +16°C° 0 mm 1 mps 674 mmHg 85%
    20:00 +15°C° 0 mm 1 mps 674 mmHg 87%
    21:00 +15°C° 0 mm 1 mps 675 mmHg 89%
    22:00 +15°C° 0 mm 1 mps 674 mmHg 89%
    23:00 +14°C° 0 mm 1 mps 674 mmHg 90%

    29 September, Saturday

    Time Temperature Precipitation Wind Pressure Humidity
    00:00 +14°C° 0 mm 1 mps 674 mmHg 90%
    01:00 +14°C° 0 mm 1 mps 674 mmHg 90%
    02:00 +13°C° 0 mm 1 mps 674 mmHg 90%
    03:00 +13°C° 0 mm 1 mps 673 mmHg 90%
    04:00 +13°C° 0 mm 1 mps 673 mmHg 88%
    05:00 +12°C° 0 mm 1 mps 674 mmHg 86%
    06:00 +12°C° 0 mm 1 mps 674 mmHg 84%
    07:00 +14°C° 0 mm 1 mps 674 mmHg 80%
    08:00 +15°C° 0 mm 1 mps 674 mmHg 76%
    09:00 +18°C° 0 mm 1 mps 675 mmHg 72%
    10:00 +18°C° 0.5 mm 1 mps 675 mmHg 74%
    11:00 +18°C° 0.5 mm 1 mps 674 mmHg 76%
    12:00 +18°C° 0.5 mm 1 mps 674 mmHg 79%
    13:00 +16°C° 2.1 mm 1 mps 674 mmHg 82%
    14:00 +16°C° 2.1 mm 1 mps 674 mmHg 85%
    15:00 +15°C° 2.1 mm 1 mps 673 mmHg 88%
    16:00 +15°C° 2.2 mm 1 mps 673 mmHg 89%
    17:00 +14°C° 2.2 mm 1 mps 674 mmHg 89%
    18:00 +14°C° 2.2 mm 1 mps 674 mmHg 89%
    19:00 +14°C° 1.8 mm 1 mps 674 mmHg 89%
    20:00 +14°C° 1.8 mm 2 mps 674 mmHg 89%
    21:00 +14°C° 1.8 mm 2 mps 674 mmHg 89%
    22:00 +14°C° 0.7 mm 2 mps 673 mmHg 89%
    23:00 +13°C° 0.7 mm 2 mps 672 mmHg 88%

    30 September, Sunday

    Time Temperature Precipitation Wind Pressure Humidity
    00:00 +13°C° 0.7 mm 2 mps 672 mmHg 88%
    01:00 +13°C° 0.1 mm 2 mps 671 mmHg 88%
    02:00 +13°C° 0.1 mm 2 mps 671 mmHg 87%
    03:00 +14°C° 0.1 mm 2 mps 670 mmHg 87%
    04:00 +14°C° 0.1 mm 2 mps 670 mmHg 87%
    05:00 +14°C° 0.1 mm 2 mps 670 mmHg 88%
    06:00 +14°C° 0.1 mm 2 mps 670 mmHg 88%
    07:00 +15°C° 0.1 mm 2 mps 670 mmHg 87%
    08:00 +16°C° 0.1 mm 2 mps 669 mmHg 87%
    09:00 +17°C° 0.1 mm 2 mps 669 mmHg 86%
    10:00 +17°C° 0.5 mm 2 mps 669 mmHg 87%
    11:00 +17°C° 0.5 mm 2 mps 668 mmHg 87%
    12:00 +19°C° 0.5 mm 1 mps 668 mmHg 88%
    13:00 +18°C° 0.3 mm 2 mps 666 mmHg 89%
    14:00 +18°C° 0.3 mm 2 mps 665 mmHg 89%
    15:00 +18°C° 0.3 mm 2 mps 664 mmHg 90%
    16:00 +18°C° 1.6 mm 2 mps 664 mmHg 91%
    17:00 +18°C° 1.6 mm 3 mps 663 mmHg 93%
    18:00 +18°C° 1.6 mm 3 mps 663 mmHg 94%
    19:00 +17°C° 3 mm 5 mps 661 mmHg 94%
    20:00 +18°C° 3 mm 8 mps 658 mmHg 94%
    21:00 +19°C° 3 mm 10 mps 656 mmHg 94%
    22:00 +19°C° 7.5 mm 12 mps 654 mmHg 93%
    23:00 +19°C° 7.5 mm 13 mps 653 mmHg 93%
    Show more